Time,TemperatureF,DewpointF,PressureIn,WindDirection,WindDirectionDegrees,WindSpeedMPH,WindSpeedGustMPH,Humidity,HourlyPrecipIn,Conditions,Clouds,dailyrainin,SolarRadiationWatts/m^2,SoftwareType,DateUTC
2013-07-15 00:02:00,70.6,70.6,30.17,West,271,0.0,0.0,100,0.00,,CLR,0.00,0.00,VWS V14.01,2013-07-15 04:02:00,
2013-07-15 00:12:00,70.6,70.6,30.17,West,271,0.0,0.0,100,0.00,,CLR,0.00,0.00,VWS V14.01,2013-07-15 04:12:00,
2013-07-15 00:22:00,70.4,70.4,30.17,West,271,0.0,0.0,100,0.00,,CLR,0.00,0.00,VWS V14.01,2013-07-15 04:22:00,
2013-07-15 00:32:00,70.6,70.6,30.16,West,271,0.0,0.0,100,0.00,,CLR,0.00,0.00,VWS V14.01,2013-07-15 04:32:00,
2013-07-15 00:42:00,70.6,70.6,30.16,West,271,0.0,0.0,100,0.00,,CLR,0.00,0.00,VWS V14.01,2013-07-15 04:42:00,
2013-07-15 00:52:00,70.4,70.4,30.16,West,271,0.0,0.0,100,0.00,,CLR,0.00,0.00,VWS V14.01,2013-07-15 04:52:00,
2013-07-15 01:02:00,70.1,70.1,30.16,West,271,0.0,0.0,100,0.00,,CLR,0.00,0.00,VWS V14.01,2013-07-15 05:02:00,
2013-07-15 01:12:00,69.9,69.9,30.16,West,271,0.0,0.0,100,0.00,,CLR,0.00,0.00,VWS V14.01,2013-07-15 05:12:00,
2013-07-15 01:22:00,70.1,70.1,30.16,West,271,0.0,0.0,100,0.00,,CLR,0.00,0.00,VWS V14.01,2013-07-15 05:22:00,
2013-07-15 01:32:00,70.1,69.8,30.16,West,271,0.0,0.0,99,0.00,,CLR,0.00,0.00,VWS V14.01,2013-07-15 05:32:00,
2013-07-15 01:42:00,69.9,69.6,30.16,West,271,0.0,0.0,99,0.00,,CLR,0.00,0.00,VWS V14.01,2013-07-15 05:42:00,
2013-07-15 01:52:00,69.6,69.3,30.15,West,271,0.0,0.0,99,0.00,,CLR,0.00,0.00,VWS V14.01,2013-07-15 05:52:00,
2013-07-15 02:02:00,69.8,69.8,30.15,West,271,0.0,0.0,100,0.00,,CLR,0.00,0.00,VWS V14.01,2013-07-15 06:02:00,
2013-07-15 02:12:00,69.6,69.6,30.15,West,271,0.0,0.0,100,0.00,,CLR,0.00,0.00,VWS V14.01,2013-07-15 06:12:00,
2013-07-15 02:22:00,69.6,69.6,30.15,West,271,0.0,0.0,100,0.00,,CLR,0.00,0.00,VWS V14.01,2013-07-15 06:22:00,
2013-07-15 02:32:00,69.4,69.1,30.15,West,271,0.0,0.0,99,0.00,,CLR,0.00,0.00,VWS V14.01,2013-07-15 06:32:00,
2013-07-15 02:42:00,69.3,69.3,30.15,West,271,0.0,0.0,100,0.00,,CLR,0.00,0.00,VWS V14.01,2013-07-15 06:42:00,
2013-07-15 02:52:00,69.3,69.3,30.15,West,271,0.0,0.0,100,0.00,,CLR,0.00,0.00,VWS V14.01,2013-07-15 06:52:00,
2013-07-15 03:02:00,68.9,68.9,30.15,West,271,0.0,0.0,100,0.00,,CLR,0.00,0.00,VWS V14.01,2013-07-15 07:02:00,
2013-07-15 03:12:00,68.9,68.9,30.15,West,271,0.0,0.0,100,0.00,,CLR,0.00,0.00,VWS V14.01,2013-07-15 07:12:00,
2013-07-15 03:22:00,68.8,68.8,30.15,West,271,0.0,0.0,100,0.00,,CLR,0.00,0.00,VWS V14.01,2013-07-15 07:22:00,
2013-07-15 03:32:00,68.6,68.6,30.15,West,271,0.0,0.0,100,0.00,,CLR,0.00,0.00,VWS V14.01,2013-07-15 07:32:00,
2013-07-15 03:42:00,68.6,68.6,30.15,West,271,0.0,0.0,100,0.00,,CLR,0.00,0.00,VWS V14.01,2013-07-15 07:42:00,
2013-07-15 03:52:00,68.6,68.6,30.15,West,271,0.0,0.0,100,0.00,,CLR,0.00,0.00,VWS V14.01,2013-07-15 07:52:00,
2013-07-15 04:02:00,68.6,68.6,30.15,West,271,0.0,0.0,100,0.00,,CLR,0.00,0.00,VWS V14.01,2013-07-15 08:02:00,
2013-07-15 04:12:00,68.6,68.6,30.15,West,271,0.0,0.0,100,0.00,,CLR,0.00,0.00,VWS V14.01,2013-07-15 08:12:00,
2013-07-15 04:22:00,68.4,68.4,30.15,West,271,0.0,0.0,100,0.00,,CLR,0.00,0.00,VWS V14.01,2013-07-15 08:22:00,
2013-07-15 04:32:00,68.3,68.3,30.15,West,271,0.0,0.0,100,0.00,,CLR,0.00,0.00,VWS V14.01,2013-07-15 08:32:00,
2013-07-15 04:42:00,68.1,68.1,30.15,West,271,0.0,0.0,100,0.00,,CLR,0.00,0.00,VWS V14.01,2013-07-15 08:42:00,
2013-07-15 04:52:00,68.1,68.1,30.15,West,271,0.0,0.0,100,0.00,,CLR,0.00,0.00,VWS V14.01,2013-07-15 08:52:00,
2013-07-15 05:02:00,67.9,67.9,30.15,West,271,0.0,0.0,100,0.00,,CLR,0.00,0.00,VWS V14.01,2013-07-15 09:02:00,
2013-07-15 05:12:00,68.1,68.1,30.15,West,271,0.0,0.0,100,0.00,,CLR,0.00,0.00,VWS V14.01,2013-07-15 09:12:00,
2013-07-15 05:22:00,68.1,68.1,30.15,West,271,0.0,0.0,100,0.00,,CLR,0.00,0.00,VWS V14.01,2013-07-15 09:22:00,
2013-07-15 05:32:00,68.1,68.1,30.15,West,271,0.0,0.0,100,0.00,,CLR,0.00,5.00,VWS V14.01,2013-07-15 09:32:00,
2013-07-15 05:42:00,68.1,68.1,30.15,West,271,0.0,0.0,100,0.00,,CLR,0.00,9.00,VWS V14.01,2013-07-15 09:42:00,
2013-07-15 05:52:00,68.1,68.1,30.16,West,271,0.0,0.0,100,0.00,,CLR,0.00,11.00,VWS V14.01,2013-07-15 09:52:00,
2013-07-15 06:02:00,68.3,68.3,30.15,West,271,0.0,0.0,100,0.00,,CLR,0.00,12.00,VWS V14.01,2013-07-15 10:02:00,
2013-07-15 06:12:00,68.3,68.3,30.15,West,271,0.0,0.0,100,0.00,,CLR,0.00,16.00,VWS V14.01,2013-07-15 10:12:00,
2013-07-15 06:22:00,68.3,68.3,30.16,West,271,0.0,0.0,100,0.00,,CLR,0.00,18.00,VWS V14.01,2013-07-15 10:22:00,
2013-07-15 06:32:00,68.6,68.6,30.16,West,271,0.0,0.0,100,0.00,,CLR,0.00,23.00,VWS V14.01,2013-07-15 10:32:00,
2013-07-15 06:42:00,68.9,68.9,30.16,West,271,0.0,0.0,100,0.00,,CLR,0.00,26.00,VWS V14.01,2013-07-15 10:42:00,
2013-07-15 06:52:00,69.1,69.1,30.17,West,271,0.0,0.0,100,0.00,,CLR,0.00,28.00,VWS V14.01,2013-07-15 10:52:00,
2013-07-15 07:12:00,70.6,70.0,30.16,West,271,0.0,0.0,98,0.00,,CLR,0.00,39.00,VWS V14.01,2013-07-15 11:12:00,
2013-07-15 07:22:00,71.6,69.5,30.17,West,271,0.0,0.0,93,0.00,,CLR,0.00,40.00,VWS V14.01,2013-07-15 11:22:00,
2013-07-15 07:32:00,71.5,70.0,30.17,West,271,0.0,0.0,95,0.00,,CLR,0.00,47.00,VWS V14.01,2013-07-15 11:32:00,
2013-07-15 07:42:00,73.0,69.9,30.17,West,271,0.0,0.0,90,0.00,,CLR,0.00,33.00,VWS V14.01,2013-07-15 11:42:00,
2013-07-15 07:52:00,73.7,69.9,30.17,West,271,0.0,0.0,88,0.00,,CLR,0.00,135.00,VWS V14.01,2013-07-15 11:52:00,
2013-07-15 08:02:00,74.4,70.3,30.16,West,271,0.0,0.0,87,0.00,,CLR,0.00,37.00,VWS V14.01,2013-07-15 12:02:00,
2013-07-15 08:12:00,75.1,70.3,30.16,West,271,0.0,0.0,85,0.00,,CLR,0.00,39.00,VWS V14.01,2013-07-15 12:12:00,
2013-07-15 08:22:00,75.8,70.6,30.16,West,271,0.0,0.0,84,0.00,,CLR,0.00,40.00,VWS V14.01,2013-07-15 12:22:00,
2013-07-15 08:32:00,76.5,71.0,30.16,West,268,0.0,0.0,83,0.00,,CLR,0.00,44.00,VWS V14.01,2013-07-15 12:32:00,
2013-07-15 08:42:00,77.4,71.5,30.16,WNW,300,0.0,0.0,82,0.00,,CLR,0.00,98.00,VWS V14.01,2013-07-15 12:42:00,
2013-07-15 08:52:00,78.1,70.3,30.15,West,266,1.0,7.0,77,0.00,,CLR,0.00,47.00,VWS V14.01,2013-07-15 12:52:00,
2013-07-15 09:02:00,78.5,70.7,30.15,West,266,0.0,5.0,77,0.00,,CLR,0.00,53.00,VWS V14.01,2013-07-15 13:02:00,
2013-07-15 09:12:00,79.4,70.4,30.15,WNW,291,0.0,11.0,74,0.00,,CLR,0.00,54.00,VWS V14.01,2013-07-15 13:12:00,
2013-07-15 09:22:00,79.8,69.6,30.15,NNE,30,4.0,12.0,71,0.00,,CLR,0.00,54.00,VWS V14.01,2013-07-15 13:22:00,
2013-07-15 09:32:00,80.1,69.0,30.15,NNW,330,5.0,13.0,69,0.00,,CLR,0.00,63.00,VWS V14.01,2013-07-15 13:32:00,
2013-07-15 09:42:00,80.9,69.4,30.15,NW,312,7.0,14.0,68,0.00,,CLR,0.00,81.00,VWS V14.01,2013-07-15 13:42:00,
2013-07-15 09:52:00,80.9,68.0,30.15,West,271,5.0,8.0,65,0.00,,CLR,0.00,123.00,VWS V14.01,2013-07-15 13:52:00,
2013-07-15 10:02:00,81.2,69.2,30.14,WNW,288,7.0,13.0,67,0.00,,CLR,0.00,65.00,VWS V14.01,2013-07-15 14:02:00,
2013-07-15 10:12:00,81.2,69.6,30.14,WNW,302,7.0,11.0,68,0.00,,CLR,0.00,104.00,VWS V14.01,2013-07-15 14:12:00,
2013-07-15 10:22:00,81.8,69.3,30.14,WNW,301,5.0,11.0,66,0.00,,CLR,0.00,93.00,VWS V14.01,2013-07-15 14:22:00,
2013-07-15 10:32:00,82.2,68.4,30.14,WNW,283,9.0,15.0,63,0.00,,CLR,0.00,197.00,VWS V14.01,2013-07-15 14:32:00,
2013-07-15 10:42:00,82.4,68.6,30.14,NNW,328,4.0,13.0,63,0.00,,CLR,0.00,91.00,VWS V14.01,2013-07-15 14:42:00,
2013-07-15 10:52:00,83.6,69.2,30.14,West,278,7.0,13.0,62,0.00,,CLR,0.00,109.00,VWS V14.01,2013-07-15 14:52:00,
2013-07-15 11:02:00,83.8,68.0,30.13,NNE,25,7.0,14.0,59,0.00,,CLR,0.00,863.00,VWS V14.01,2013-07-15 15:02:00,
2013-07-15 11:12:00,83.8,68.4,30.13,NW,307,3.0,11.0,60,0.00,,CLR,0.00,872.00,VWS V14.01,2013-07-15 15:12:00,
2013-07-15 11:22:00,84.7,71.2,30.13,NW,320,12.0,14.0,64,0.00,,CLR,0.00,895.00,VWS V14.01,2013-07-15 15:22:00,
2013-07-15 11:32:00,85.1,68.7,30.13,NW,321,7.0,14.0,58,0.00,,CLR,0.00,896.00,VWS V14.01,2013-07-15 15:32:00,
2013-07-15 11:42:00,85.5,68.5,30.13,West,263,8.0,11.0,57,0.00,,CLR,0.00,946.00,VWS V14.01,2013-07-15 15:42:00,
2013-07-15 11:52:00,85.9,69.4,30.12,WNW,297,4.0,14.0,58,0.00,,CLR,0.00,1025.00,VWS V14.01,2013-07-15 15:52:00,
2013-07-15 12:02:00,85.9,68.9,30.12,West,276,11.0,13.0,57,0.00,,CLR,0.00,947.00,VWS V14.01,2013-07-15 16:02:00,
2013-07-15 12:12:00,86.5,69.5,30.12,West,277,11.0,15.0,57,0.00,,CLR,0.00,1058.00,VWS V14.01,2013-07-15 16:12:00,
2013-07-15 12:22:00,86.3,71.3,30.12,West,261,5.0,11.0,61,0.00,,CLR,0.00,949.00,VWS V14.01,2013-07-15 16:22:00,
2013-07-15 12:32:00,86.5,68.4,30.11,West,274,6.0,16.0,55,0.00,,FEW044,0.00,963.00,VWS V14.01,2013-07-15 16:32:00,
2013-07-15 12:42:00,87.4,68.2,30.11,NNE,20,3.0,15.0,53,0.00,,FEW044,0.00,983.00,VWS V14.01,2013-07-15 16:42:00,
2013-07-15 13:02:00,87.6,68.9,30.10,NW,326,4.0,18.0,54,0.00,,FEW044,0.00,967.00,VWS V14.01,2013-07-15 17:02:00,
2013-07-15 13:12:00,88.0,67.1,30.10,NW,319,5.0,11.0,50,0.00,,FEW044,0.00,967.00,VWS V14.01,2013-07-15 17:12:00,
2013-07-15 13:22:00,88.2,66.7,30.10,North,9,0.0,11.0,49,0.00,,FEW044,0.00,962.00,VWS V14.01,2013-07-15 17:22:00,
2013-07-15 13:32:00,88.6,67.6,30.10,NW,307,8.0,12.0,50,0.00,,CLR,0.00,958.00,VWS V14.01,2013-07-15 17:32:00,
2013-07-15 13:42:00,88.2,66.7,30.10,NNE,19,3.0,12.0,49,0.00,,CLR,0.00,956.00,VWS V14.01,2013-07-15 17:42:00,
2013-07-15 13:52:00,88.8,66.6,30.09,NNW,327,3.0,8.0,48,0.00,,CLR,0.00,951.00,VWS V14.01,2013-07-15 17:52:00,
2013-07-15 14:02:00,88.6,67.6,30.09,North,351,1.0,9.0,50,0.00,,CLR,0.00,1071.00,VWS V14.01,2013-07-15 18:02:00,
2013-07-15 14:12:00,89.0,68.0,30.09,West,270,4.0,10.0,50,0.00,,CLR,0.00,925.00,VWS V14.01,2013-07-15 18:12:00,
2013-07-15 14:22:00,89.0,66.8,30.09,North,10,2.0,7.0,48,0.00,,CLR,0.00,904.00,VWS V14.01,2013-07-15 18:22:00,
2013-07-15 14:32:00,89.5,67.2,30.09,West,268,0.0,13.0,48,0.00,,CLR,0.00,849.00,VWS V14.01,2013-07-15 18:32:00,
2013-07-15 14:42:00,89.9,67.0,30.09,West,272,6.0,13.0,47,0.00,,CLR,0.00,780.00,VWS V14.01,2013-07-15 18:42:00,
2013-07-15 14:52:00,90.1,66.6,30.08,West,269,9.0,12.0,46,0.00,,CLR,0.00,780.00,VWS V14.01,2013-07-15 18:52:00,
2013-07-15 15:02:00,90.3,66.7,30.08,NW,307,4.0,10.0,46,0.00,,CLR,0.00,828.00,VWS V14.01,2013-07-15 19:02:00,
2013-07-15 15:12:00,90.5,68.2,30.08,West,276,9.0,11.0,48,0.00,,CLR,0.00,817.00,VWS V14.01,2013-07-15 19:12:00,
2013-07-15 15:22:00,90.7,68.3,30.07,NW,315,7.0,11.0,48,0.00,,CLR,0.00,798.00,VWS V14.01,2013-07-15 19:22:00,
2013-07-15 15:32:00,90.7,65.8,30.07,NNE,17,4.0,10.0,44,0.00,,CLR,0.00,770.00,VWS V14.01,2013-07-15 19:32:00,
2013-07-15 15:42:00,90.7,65.8,30.07,North,1,5.0,12.0,44,0.00,,CLR,0.00,689.00,VWS V14.01,2013-07-15 19:42:00,
2013-07-15 15:52:00,91.0,66.7,30.07,North,1,2.0,9.0,45,0.00,,CLR,0.00,598.00,VWS V14.01,2013-07-15 19:52:00,
2013-07-15 16:02:00,91.0,66.7,30.06,West,266,4.0,11.0,45,0.00,,CLR,0.00,589.00,VWS V14.01,2013-07-15 20:02:00,
2013-07-15 16:22:00,89.7,68.6,30.06,NE,46,3.0,12.0,50,0.00,,CLR,0.00,687.00,VWS V14.01,2013-07-15 20:22:00,
2013-07-15 16:42:00,89.9,69.4,30.06,NW,309,10.0,10.0,51,0.00,,CLR,0.00,599.00,VWS V14.01,2013-07-15 20:42:00,
2013-07-15 16:52:00,90.7,67.7,30.05,West,265,10.0,13.0,47,0.00,,CLR,0.00,591.00,VWS V14.01,2013-07-15 20:52:00,
2013-07-15 17:02:00,90.5,68.8,30.05,WNW,287,12.0,13.0,49,0.00,,CLR,0.00,508.00,VWS V14.01,2013-07-15 21:02:00,
2013-07-15 17:12:00,90.5,69.9,30.05,WNW,293,7.0,11.0,51,0.00,,CLR,0.00,492.00,VWS V14.01,2013-07-15 21:12:00,
2013-07-15 17:32:00,89.9,66.4,30.05,North,349,1.0,11.0,46,0.00,,FEW060,0.00,357.00,VWS V14.01,2013-07-15 21:32:00,
2013-07-15 17:42:00,89.9,65.1,30.05,NNW,343,0.0,9.0,44,0.00,,FEW060,0.00,336.00,VWS V14.01,2013-07-15 21:42:00,
2013-07-15 17:52:00,89.9,64.4,30.04,North,359,0.0,10.0,43,0.00,,FEW060,0.00,338.00,VWS V14.01,2013-07-15 21:52:00,
2013-07-15 18:02:00,89.3,64.6,30.04,NW,307,4.0,9.0,44,0.00,,CLR,0.00,330.00,VWS V14.01,2013-07-15 22:02:00,
2013-07-15 18:12:00,89.0,65.6,30.04,WNW,295,6.0,12.0,46,0.00,,CLR,0.00,325.00,VWS V14.01,2013-07-15 22:12:00,
2013-07-15 18:22:00,89.0,66.8,30.05,WNW,294,3.0,7.0,48,0.00,,CLR,0.00,302.00,VWS V14.01,2013-07-15 22:22:00,
2013-07-15 18:32:00,88.4,66.8,30.05,NW,305,7.0,12.0,49,0.00,,CLR,0.00,271.00,VWS V14.01,2013-07-15 22:32:00,
2013-07-15 18:42:00,88.0,66.5,30.05,WNW,292,4.0,7.0,49,0.00,,CLR,0.00,241.00,VWS V14.01,2013-07-15 22:42:00,
2013-07-15 18:52:00,87.4,67.1,30.05,NW,319,0.0,5.0,51,0.00,,CLR,0.00,211.00,VWS V14.01,2013-07-15 22:52:00,
2013-07-15 19:12:00,86.5,67.3,30.05,West,274,1.0,5.0,53,0.00,,CLR,0.00,53.00,VWS V14.01,2013-07-15 23:12:00,
2013-07-15 19:22:00,85.9,67.3,30.05,WNW,285,3.0,5.0,54,0.00,,CLR,0.00,46.00,VWS V14.01,2013-07-15 23:22:00,
2013-07-15 19:32:00,85.1,67.7,30.05,WNW,285,2.0,5.0,56,0.00,,CLR,0.00,42.00,VWS V14.01,2013-07-15 23:32:00,
2013-07-15 19:42:00,84.7,66.2,30.05,WNW,292,0.0,4.0,54,0.00,,CLR,0.00,35.00,VWS V14.01,2013-07-15 23:42:00,
2013-07-15 19:52:00,84.3,64.8,30.05,WNW,293,4.0,4.0,52,0.00,,CLR,0.00,28.00,VWS V14.01,2013-07-15 23:52:00,
2013-07-15 20:12:00,84.0,65.1,30.06,WNW,295,0.0,4.0,53,0.00,,CLR,0.00,9.00,VWS V14.01,2013-07-16 00:12:00,
2013-07-15 20:22:00,83.2,64.8,30.05,WNW,295,0.0,4.0,54,0.00,,CLR,0.00,0.00,VWS V14.01,2013-07-16 00:22:00,
2013-07-15 20:32:00,80.7,66.0,30.06,WNW,295,3.0,4.0,61,0.00,,CLR,0.00,0.00,VWS V14.01,2013-07-16 00:32:00,
2013-07-15 20:42:00,76.8,69.1,30.06,WNW,295,0.0,3.0,77,0.00,,CLR,0.00,0.00,VWS V14.01,2013-07-16 00:42:00,
2013-07-15 20:52:00,75.8,68.1,30.07,WNW,295,0.0,1.0,77,0.00,,CLR,0.00,0.00,VWS V14.01,2013-07-16 00:52:00,
2013-07-15 21:02:00,75.1,67.8,30.07,WNW,295,0.0,1.0,78,0.00,,CLR,0.00,0.00,VWS V14.01,2013-07-16 01:02:00,
2013-07-15 21:12:00,74.7,67.4,30.07,WNW,295,0.0,0.0,78,0.00,,CLR,0.00,0.00,VWS V14.01,2013-07-16 01:12:00,
2013-07-15 21:32:00,74.6,67.7,30.08,WNW,295,0.0,0.0,79,0.00,,CLR,0.00,0.00,VWS V14.01,2013-07-16 01:32:00,
2013-07-15 21:42:00,73.9,66.6,30.08,WNW,295,0.0,0.0,78,0.00,,CLR,0.00,0.00,VWS V14.01,2013-07-16 01:42:00,
2013-07-15 21:52:00,73.5,67.0,30.09,WNW,295,0.0,0.0,80,0.00,,CLR,0.00,0.00,VWS V14.01,2013-07-16 01:52:00,
2013-07-15 22:02:00,73.0,65.7,30.09,WNW,295,0.0,0.0,78,0.00,,CLR,0.00,0.00,VWS V14.01,2013-07-16 02:02:00,
2013-07-15 22:12:00,72.5,66.0,30.09,WNW,295,0.0,0.0,80,0.00,,CLR,0.00,0.00,VWS V14.01,2013-07-16 02:12:00,
2013-07-15 22:32:00,72.7,66.5,30.09,WNW,295,0.0,0.0,81,0.00,,CLR,0.00,0.00,VWS V14.01,2013-07-16 02:32:00,
2013-07-15 22:42:00,72.8,66.3,30.09,WNW,295,0.0,0.0,80,0.00,,CLR,0.00,0.00,VWS V14.01,2013-07-16 02:42:00,
2013-07-15 23:12:00,71.3,65.9,30.09,WNW,295,0.0,0.0,83,0.00,,CLR,0.00,0.00,VWS V14.01,2013-07-16 03:12:00,
2013-07-15 23:22:00,70.9,65.5,30.09,WNW,295,0.0,0.0,83,0.00,,CLR,0.00,0.00,VWS V14.01,2013-07-16 03:22:00,
2013-07-15 23:32:00,70.8,65.4,30.09,WNW,295,0.0,0.0,83,0.00,,CLR,0.00,0.00,VWS V14.01,2013-07-16 03:32:00,
2013-07-15 23:42:00,70.9,65.5,30.09,WNW,295,0.0,0.0,83,0.00,,CLR,0.00,0.00,VWS V14.01,2013-07-16 03:42:00,
2013-07-15 23:52:00,70.8,65.4,30.10,WNW,295,0.0,0.0,83,0.00,,CLR,0.00,0.00,VWS V14.01,2013-07-16 03:52:00,